Time,TemperatureF,DewpointF,PressureIn,WindDirection,WindDirectionDegrees,WindSpeedMPH,WindSpeedGustMPH,Humidity,HourlyPrecipIn,Conditions,Clouds,dailyrainin,SoftwareType,DateUTC
2013-03-28 00:02:00,39.0,29.0,30.36,ENE,70,0.0,0.0,66,0.00,,,0.00,,2013-03-28 05:02:00,
2013-03-28 00:12:00,39.0,29.0,30.36,ENE,70,0.0,0.0,66,0.00,,,0.00,,2013-03-28 05:12:00,
2013-03-28 00:22:00,39.0,29.0,30.36,ENE,70,0.0,1.0,66,0.00,,,0.00,,2013-03-28 05:22:00,
2013-03-28 00:32:00,39.0,29.0,30.36,ESE,107,0.0,1.0,67,0.00,,,0.00,,2013-03-28 05:32:00,
2013-03-28 00:42:00,39.0,29.0,30.36,ESE,107,0.0,1.0,67,0.00,,,0.00,,2013-03-28 05:42:00,
2013-03-28 00:52:00,39.0,29.0,30.35,ENE,74,0.0,3.0,67,0.00,,,0.00,,2013-03-28 05:52:00,
2013-03-28 01:02:00,38.0,29.0,30.35,ENE,76,0.0,2.0,69,0.00,,,0.00,,2013-03-28 06:02:00,
2013-03-28 01:12:00,38.0,29.0,30.35,ENE,76,0.0,2.0,69,0.00,,,0.00,,2013-03-28 06:12:00,
2013-03-28 01:22:00,38.0,29.0,30.35,ENE,72,0.0,3.0,69,0.00,,,0.00,,2013-03-28 06:22:00,
2013-03-28 01:32:00,38.0,29.0,30.35,East,95,0.0,2.0,70,0.00,,,0.00,,2013-03-28 06:32:00,
2013-03-28 01:42:00,38.0,29.0,30.35,East,95,0.0,2.0,70,0.00,,,0.00,,2013-03-28 06:42:00,
2013-03-28 01:52:00,38.0,28.0,30.35,SE,132,0.0,4.0,67,0.00,,,0.00,,2013-03-28 06:52:00,
2013-03-28 02:02:00,38.0,28.0,30.35,ESE,123,0.0,3.0,67,0.00,,,0.00,,2013-03-28 07:02:00,
2013-03-28 02:12:00,38.0,28.0,30.35,ESE,123,0.0,3.0,67,0.00,,,0.00,,2013-03-28 07:12:00,
2013-03-28 02:22:00,38.0,28.0,30.34,SSE,147,1.0,5.0,67,0.00,,,0.00,,2013-03-28 07:22:00,
2013-03-28 02:32:00,37.0,27.0,30.35,SE,134,0.0,3.0,68,0.00,,,0.00,,2013-03-28 07:32:00,
2013-03-28 02:42:00,37.0,27.0,30.35,SE,134,0.0,3.0,68,0.00,,,0.00,,2013-03-28 07:42:00,
2013-03-28 02:52:00,37.0,27.0,30.35,ESE,119,0.0,3.0,68,0.00,,,0.00,,2013-03-28 07:52:00,
2013-03-28 03:02:00,37.0,28.0,30.34,ESE,115,0.0,3.0,69,0.00,,,0.00,,2013-03-28 08:02:00,
2013-03-28 03:12:00,37.0,28.0,30.34,ESE,115,0.0,3.0,69,0.00,,,0.00,,2013-03-28 08:12:00,
2013-03-28 03:21:00,37.0,28.0,30.34,SE,128,0.0,2.0,69,0.00,,,0.00,,2013-03-28 08:21:00,
2013-03-28 03:32:00,37.0,28.0,30.34,ESE,112,0.0,7.0,69,0.00,,,0.00,,2013-03-28 08:32:00,
2013-03-28 03:42:00,37.0,28.0,30.34,ESE,112,0.0,7.0,69,0.00,,,0.00,,2013-03-28 08:42:00,
2013-03-28 03:52:00,37.0,27.0,30.34,ESE,119,0.0,4.0,68,0.00,,,0.00,,2013-03-28 08:52:00,
2013-03-28 04:02:00,37.0,28.0,30.34,ESE,117,0.0,3.0,69,0.00,,,0.00,,2013-03-28 09:02:00,
2013-03-28 04:12:00,37.0,28.0,30.34,ESE,117,0.0,3.0,69,0.00,,,0.00,,2013-03-28 09:12:00,
2013-03-28 04:22:00,37.0,28.0,30.34,SE,126,1.0,3.0,69,0.00,,,0.00,,2013-03-28 09:22:00,
2013-03-28 04:32:00,37.0,28.0,30.34,ESE,122,0.0,3.0,70,0.00,,,0.00,,2013-03-28 09:32:00,
2013-03-28 04:42:00,37.0,28.0,30.34,ESE,122,0.0,3.0,70,0.00,,,0.00,,2013-03-28 09:42:00,
2013-03-28 04:52:00,36.0,27.0,30.34,ESE,103,1.0,3.0,70,0.00,,,0.00,,2013-03-28 09:52:00,
2013-03-28 05:03:00,36.0,27.0,30.34,SE,141,0.0,2.0,70,0.00,,,0.00,,2013-03-28 10:03:00,
2013-03-28 05:12:00,36.0,27.0,30.34,SE,141,0.0,2.0,70,0.00,,,0.00,,2013-03-28 10:12:00,
2013-03-28 05:22:00,36.0,27.0,30.35,ESE,123,1.0,3.0,70,0.00,,,0.00,,2013-03-28 10:22:00,
2013-03-28 05:33:00,36.0,27.0,30.35,ESE,122,0.0,4.0,70,0.00,,,0.00,,2013-03-28 10:33:00,
2013-03-28 05:42:00,36.0,27.0,30.35,ESE,122,0.0,4.0,70,0.00,,,0.00,,2013-03-28 10:42:00,
2013-03-28 05:52:00,36.0,27.0,30.35,ESE,123,0.0,3.0,69,0.00,,,0.00,,2013-03-28 10:52:00,
2013-03-28 06:02:00,36.0,26.0,30.35,ESE,111,0.0,3.0,68,0.00,,,0.00,,2013-03-28 11:02:00,
2013-03-28 06:12:00,36.0,26.0,30.35,ESE,111,0.0,3.0,68,0.00,,,0.00,,2013-03-28 11:12:00,
2013-03-28 06:23:00,36.0,26.0,30.36,SSE,165,1.0,3.0,68,0.00,,,0.00,,2013-03-28 11:23:00,
2013-03-28 06:32:00,36.0,26.0,30.35,SSE,149,2.0,7.0,66,0.00,,,0.00,,2013-03-28 11:32:00,
2013-03-28 06:42:00,36.0,26.0,30.35,SSE,149,2.0,7.0,66,0.00,,,0.00,,2013-03-28 11:42:00,
2013-03-28 06:52:00,37.0,26.0,30.36,SE,146,0.0,7.0,65,0.00,,,0.00,,2013-03-28 11:52:00,
2013-03-28 07:02:00,37.0,26.0,30.36,SSE,159,0.0,3.0,64,0.00,,,0.00,,2013-03-28 12:02:00,
2013-03-28 07:12:00,37.0,26.0,30.36,SSE,159,0.0,3.0,64,0.00,,,0.00,,2013-03-28 12:12:00,
2013-03-28 07:22:00,37.0,26.0,30.36,SE,136,1.0,5.0,64,0.00,,,0.00,,2013-03-28 12:22:00,
2013-03-28 07:32:00,37.0,26.0,30.36,NNE,16,1.0,6.0,64,0.00,,,0.00,,2013-03-28 12:32:00,
2013-03-28 07:42:00,37.0,26.0,30.36,NNE,16,1.0,6.0,64,0.00,,,0.00,,2013-03-28 12:42:00,
2013-03-28 07:52:00,37.0,25.0,30.37,SE,134,1.0,8.0,62,0.00,,,0.00,,2013-03-28 12:52:00,
2013-03-28 08:02:00,37.0,26.0,30.36,South,178,0.0,6.0,63,0.00,,,0.00,,2013-03-28 13:02:00,
2013-03-28 08:12:00,37.0,26.0,30.36,South,178,0.0,6.0,63,0.00,,,0.00,,2013-03-28 13:12:00,
2013-03-28 08:22:00,37.0,25.0,30.37,SE,125,1.0,4.0,62,0.00,,,0.00,,2013-03-28 13:22:00,
2013-03-28 08:32:00,37.0,25.0,30.37,SE,130,1.0,4.0,61,0.00,,,0.00,,2013-03-28 13:32:00,
2013-03-28 08:42:00,37.0,25.0,30.37,SE,130,1.0,4.0,61,0.00,,,0.00,,2013-03-28 13:42:00,
2013-03-28 08:52:00,37.0,25.0,30.37,SE,130,1.0,4.0,61,0.00,,,0.00,,2013-03-28 13:52:00,
2013-03-28 09:02:00,40.0,26.0,30.37,SSW,210,2.0,10.0,58,0.00,,,0.00,,2013-03-28 14:02:00,
2013-03-28 09:12:00,40.0,26.0,30.37,SSW,210,2.0,10.0,58,0.00,,,0.00,,2013-03-28 14:12:00,
2013-03-28 09:22:00,40.0,26.0,30.37,SE,146,2.0,9.0,57,0.00,,,0.00,,2013-03-28 14:22:00,
2013-03-28 09:32:00,41.0,27.0,30.37,SSE,166,2.0,6.0,57,0.00,,,0.00,,2013-03-28 14:32:00,
2013-03-28 09:42:00,41.0,27.0,30.37,SSE,166,2.0,6.0,57,0.00,,,0.00,,2013-03-28 14:42:00,
2013-03-28 09:51:00,42.0,28.0,30.37,ESE,123,1.0,4.0,57,0.00,,,0.00,,2013-03-28 14:51:00,
2013-03-28 10:02:00,42.0,28.0,30.37,ESE,123,1.0,4.0,57,0.00,,,0.00,,2013-03-28 15:02:00,
2013-03-28 10:12:00,42.0,28.0,30.37,ESE,123,1.0,4.0,57,0.00,,,0.00,,2013-03-28 15:12:00,
2013-03-28 10:22:00,43.0,28.0,30.37,SSE,148,2.0,7.0,56,0.00,,,0.00,,2013-03-28 15:22:00,
2013-03-28 10:33:00,44.0,29.0,30.37,SSE,147,3.0,8.0,55,0.00,,,0.00,,2013-03-28 15:33:00,
2013-03-28 10:43:00,44.0,29.0,30.37,SSE,147,3.0,8.0,55,0.00,,,0.00,,2013-03-28 15:43:00,
2013-03-28 10:52:00,44.0,29.0,30.37,SE,142,3.0,9.0,55,0.00,,,0.00,,2013-03-28 15:52:00,
2013-03-28 11:02:00,45.0,30.0,30.37,South,170,3.0,8.0,55,0.00,,,0.00,,2013-03-28 16:02:00,
2013-03-28 11:12:00,45.0,30.0,30.37,South,170,3.0,8.0,55,0.00,,,0.00,,2013-03-28 16:12:00,
2013-03-28 11:23:00,45.0,30.0,30.37,SSE,160,2.0,7.0,55,0.00,,,0.00,,2013-03-28 16:23:00,
2013-03-28 11:32:00,45.0,30.0,30.37,SSE,156,2.0,10.0,56,0.00,,,0.00,,2013-03-28 16:32:00,
2013-03-28 11:42:00,45.0,30.0,30.37,SSE,156,2.0,10.0,56,0.00,,,0.00,,2013-03-28 16:42:00,
2013-03-28 11:52:00,45.0,30.0,30.37,SSE,156,2.0,10.0,56,0.00,,,0.00,,2013-03-28 16:52:00,
2013-03-28 12:02:00,47.0,32.0,30.36,ESE,114,3.0,10.0,55,0.00,,,0.00,,2013-03-28 17:02:00,
2013-03-28 12:12:00,47.0,32.0,30.36,ESE,114,3.0,10.0,55,0.00,,,0.00,,2013-03-28 17:12:00,
2013-03-28 12:22:00,48.0,33.0,30.36,ESE,107,2.0,7.0,56,0.00,,,0.00,,2013-03-28 17:22:00,
2013-03-28 12:32:00,49.0,33.0,30.35,SSW,200,5.0,11.0,53,0.00,,,0.00,,2013-03-28 17:32:00,
2013-03-28 12:42:00,49.0,33.0,30.35,SSW,200,5.0,11.0,53,0.00,,,0.00,,2013-03-28 17:42:00,
2013-03-28 12:52:00,49.0,32.0,30.35,SSE,161,3.0,9.0,52,0.00,,,0.00,,2013-03-28 17:52:00,
2013-03-28 13:02:00,50.0,33.0,30.34,SSE,152,2.0,7.0,52,0.00,,,0.00,,2013-03-28 18:02:00,
2013-03-28 13:12:00,50.0,33.0,30.34,SSE,152,2.0,7.0,52,0.00,,,0.00,,2013-03-28 18:12:00,
2013-03-28 13:22:00,51.0,35.0,30.33,ESE,117,2.0,8.0,54,0.00,,,0.00,,2013-03-28 18:22:00,
2013-03-28 13:32:00,51.0,35.0,30.33,ESE,117,2.0,8.0,54,0.00,,,0.00,,2013-03-28 18:32:00,
2013-03-28 13:42:00,51.0,35.0,30.33,ESE,117,2.0,8.0,54,0.00,,,0.00,,2013-03-28 18:42:00,
2013-03-28 13:52:00,52.0,35.0,30.33,SE,145,1.0,9.0,53,0.00,,,0.00,,2013-03-28 18:52:00,
2013-03-28 14:02:00,52.0,36.0,30.32,South,172,2.0,7.0,55,0.00,,,0.00,,2013-03-28 19:02:00,
2013-03-28 14:12:00,52.0,36.0,30.32,South,172,2.0,7.0,55,0.00,,,0.00,,2013-03-28 19:12:00,
2013-03-28 14:22:00,53.0,35.0,30.32,SSE,160,4.0,9.0,51,0.00,,,0.00,,2013-03-28 19:22:00,
2013-03-28 14:33:00,53.0,36.0,30.30,SSE,166,2.0,8.0,53,0.00,,,0.00,,2013-03-28 19:33:00,
2013-03-28 14:42:00,53.0,36.0,30.30,SSE,166,2.0,8.0,53,0.00,,,0.00,,2013-03-28 19:42:00,
2013-03-28 14:52:00,54.0,37.0,30.30,SSE,158,3.0,8.0,53,0.00,,,0.00,,2013-03-28 19:52:00,
2013-03-28 15:03:00,54.0,37.0,30.29,South,178,1.0,7.0,52,0.00,,,0.00,,2013-03-28 20:03:00,
2013-03-28 15:12:00,54.0,37.0,30.29,South,178,1.0,7.0,52,0.00,,,0.00,,2013-03-28 20:12:00,
2013-03-28 15:22:00,54.0,36.0,30.28,SSE,163,3.0,8.0,50,0.00,,,0.00,,2013-03-28 20:22:00,
2013-03-28 15:32:00,54.0,36.0,30.27,SW,221,2.0,9.0,51,0.00,,,0.00,,2013-03-28 20:32:00,
2013-03-28 15:42:00,54.0,36.0,30.27,SW,221,2.0,9.0,51,0.00,,,0.00,,2013-03-28 20:42:00,
2013-03-28 15:52:00,54.0,37.0,30.27,South,176,3.0,8.0,52,0.00,,,0.00,,2013-03-28 20:52:00,
2013-03-28 16:02:00,55.0,37.0,30.27,SSE,157,3.0,10.0,50,0.00,,,0.00,,2013-03-28 21:02:00,
2013-03-28 16:12:00,55.0,37.0,30.27,SSE,157,3.0,10.0,50,0.00,,,0.00,,2013-03-28 21:12:00,
2013-03-28 16:22:00,56.0,38.0,30.26,SSE,158,3.0,9.0,50,0.00,,,0.00,,2013-03-28 21:22:00,
2013-03-28 16:32:00,57.0,38.0,30.25,South,188,3.0,9.0,48,0.00,,,0.00,,2013-03-28 21:32:00,
2013-03-28 16:43:00,57.0,38.0,30.25,South,188,3.0,9.0,48,0.00,,,0.00,,2013-03-28 21:43:00,
2013-03-28 16:53:00,56.0,38.0,30.24,SSE,157,3.0,6.0,50,0.00,,,0.00,,2013-03-28 21:53:00,
2013-03-28 17:02:00,56.0,37.0,30.24,ESE,105,3.0,8.0,49,0.00,,,0.00,,2013-03-28 22:02:00,
2013-03-28 17:12:00,56.0,37.0,30.24,ESE,105,3.0,8.0,49,0.00,,,0.00,,2013-03-28 22:12:00,
2013-03-28 17:22:00,55.0,38.0,30.23,East,91,1.0,9.0,52,0.00,,,0.00,,2013-03-28 22:22:00,
2013-03-28 17:32:00,54.0,37.0,30.23,SSE,160,1.0,10.0,53,0.00,,,0.00,,2013-03-28 22:32:00,
2013-03-28 17:42:00,54.0,37.0,30.23,SSE,160,1.0,10.0,53,0.00,,,0.00,,2013-03-28 22:42:00,
2013-03-28 17:52:00,54.0,37.0,30.24,ENE,78,2.0,8.0,52,0.00,,,0.00,,2013-03-28 22:52:00,
2013-03-28 18:03:00,54.0,37.0,30.24,SSE,157,1.0,7.0,53,0.00,,,0.00,,2013-03-28 23:03:00,
2013-03-28 18:12:00,54.0,37.0,30.24,SSE,157,1.0,7.0,53,0.00,,,0.00,,2013-03-28 23:12:00,
2013-03-28 18:22:00,54.0,37.0,30.24,SW,227,2.0,7.0,53,0.00,,,0.00,,2013-03-28 23:22:00,
2013-03-28 18:32:00,54.0,37.0,30.24,SE,136,2.0,6.0,53,0.00,,,0.00,,2013-03-28 23:32:00,
2013-03-28 18:42:00,54.0,37.0,30.24,SE,136,2.0,6.0,53,0.00,,,0.00,,2013-03-28 23:42:00,
2013-03-28 18:52:00,54.0,38.0,30.24,SE,129,2.0,9.0,54,0.00,,,0.00,,2013-03-28 23:52:00,
2013-03-28 19:02:00,53.0,36.0,30.24,SE,141,1.0,9.0,53,0.00,,,0.00,,2013-03-29 00:02:00,
2013-03-28 19:12:00,53.0,36.0,30.24,SE,141,1.0,9.0,53,0.00,,,0.00,,2013-03-29 00:12:00,
2013-03-28 19:22:00,53.0,37.0,30.24,ESE,120,1.0,8.0,54,0.00,,,0.00,,2013-03-29 00:22:00,
2013-03-28 19:32:00,53.0,37.0,30.24,SE,127,3.0,7.0,54,0.00,,,0.00,,2013-03-29 00:32:00,
2013-03-28 19:42:00,53.0,37.0,30.24,SE,127,3.0,7.0,54,0.00,,,0.00,,2013-03-29 00:42:00,
2013-03-28 19:52:00,53.0,37.0,30.24,ESE,121,1.0,5.0,55,0.00,,,0.00,,2013-03-29 00:52:00,
2013-03-28 20:02:00,53.0,37.0,30.24,East,92,1.0,5.0,55,0.00,,,0.00,,2013-03-29 01:02:00,
2013-03-28 20:12:00,53.0,37.0,30.24,East,92,1.0,5.0,55,0.00,,,0.00,,2013-03-29 01:12:00,
2013-03-28 20:22:00,52.0,37.0,30.25,SSE,158,1.0,5.0,56,0.00,,,0.00,,2013-03-29 01:22:00,
2013-03-28 20:32:00,52.0,37.0,30.25,SE,125,1.0,8.0,56,0.00,,,0.00,,2013-03-29 01:32:00,
2013-03-28 20:42:00,52.0,37.0,30.25,SE,125,1.0,8.0,56,0.00,,,0.00,,2013-03-29 01:42:00,
2013-03-28 20:52:00,52.0,37.0,30.25,SSE,159,2.0,8.0,57,0.00,,,0.00,,2013-03-29 01:52:00,
2013-03-28 21:02:00,51.0,37.0,30.25,SSE,162,1.0,5.0,59,0.00,,,0.00,,2013-03-29 02:02:00,
2013-03-28 21:12:00,51.0,37.0,30.25,SSE,162,1.0,5.0,59,0.00,,,0.00,,2013-03-29 02:12:00,
2013-03-28 21:22:00,51.0,38.0,30.25,ESE,102,1.0,7.0,60,0.00,,,0.00,,2013-03-29 02:22:00,
2013-03-28 21:32:00,51.0,38.0,30.25,ESE,112,2.0,7.0,60,0.00,,,0.00,,2013-03-29 02:32:00,
2013-03-28 21:42:00,51.0,38.0,30.25,ESE,112,2.0,7.0,60,0.00,,,0.00,,2013-03-29 02:42:00,
2013-03-28 21:52:00,50.0,37.0,30.26,ESE,121,1.0,7.0,61,0.00,,,0.00,,2013-03-29 02:52:00,
2013-03-28 22:02:00,50.0,38.0,30.26,SSE,147,1.0,5.0,62,0.00,,,0.00,,2013-03-29 03:02:00,
2013-03-28 22:12:00,50.0,38.0,30.26,SSE,147,1.0,5.0,62,0.00,,,0.00,,2013-03-29 03:12:00,
2013-03-28 22:22:00,49.0,37.0,30.26,ENE,74,0.0,4.0,63,0.00,,,0.00,,2013-03-29 03:22:00,
2013-03-28 22:32:00,49.0,37.0,30.26,SSE,155,1.0,4.0,64,0.00,,,0.00,,2013-03-29 03:32:00,
2013-03-28 22:42:00,49.0,37.0,30.26,SSE,155,1.0,4.0,64,0.00,,,0.00,,2013-03-29 03:42:00,
2013-03-28 22:53:00,49.0,37.0,30.26,SSE,150,0.0,4.0,64,0.00,,,0.00,,2013-03-29 03:53:00,
2013-03-28 23:03:00,49.0,37.0,30.26,SSE,161,1.0,4.0,64,0.00,,,0.00,,2013-03-29 04:03:00,
2013-03-28 23:12:00,49.0,37.0,30.26,SSE,161,1.0,4.0,64,0.00,,,0.00,,2013-03-29 04:12:00,
2013-03-28 23:22:00,49.0,37.0,30.25,SSE,150,1.0,4.0,64,0.00,,,0.00,,2013-03-29 04:22:00,
2013-03-28 23:33:00,49.0,37.0,30.25,SSE,163,1.0,4.0,64,0.00,,,0.00,,2013-03-29 04:33:00,
2013-03-28 23:43:00,49.0,37.0,30.25,SSE,163,1.0,4.0,64,0.00,,,0.00,,2013-03-29 04:43:00,
2013-03-28 23:52:00,49.0,37.0,30.25,East,98,1.0,4.0,64,0.00,,,0.00,,2013-03-29 04:52:00,